User: anonymous   Login
Location: Unspecified
(0.0000°N, 0.0000°E)
Time: 05:15:06
(UTC+00:00)
Language:

RAX-2 - Orbit

View from above orbital plane
View from above orbital plane
View from above satellite
View from above satellite

Ground track
Ground track

The orbit data is extracted from the following two-line orbital elements,

1 37853U 11061D   17086.48885358 +.00001143 +00000-0 +72976-4 0  9990
2 37853 101.7195 271.9894 0176583 329.8733 029.2410 15.01100777294380
Epoch (UTC): 27 March 2017 11:43:56
Eccentricity: 0.0176583
inclination: 101.7195°
perigee height: 441 km
apogee height: 686 km
right ascension of ascending node: 271.9894°
argument of perigee: 329.8733°
revolutions per day: 15.01100777
mean anomaly at epoch: 29.2410°
orbit number at epoch: 29438

The dashed part of the orbit path shows where the satellite is in the earth's shadow,  

DLR